DateTimeUTC,F1_A11,F1_S11,BsB_S11,BsG_S11,BsR_S11,BbsB_S11,BbsG_S11,BbsR_S11,BaB_A11,BaG_A11,BaR_A11,Tu_S11,T_S11,Uu_S11,U_S11,P_S11,T1_A11
2021-08-04T13:00:00Z,00000200,20000000,,,,,,,-000.44,-000.39,-000.31,18.2,24.5,10.1,06.9,0671.5,30.9
2021-08-04T13:01:00Z,00000200,20000000,,,,,,,-000.27,-000.35,-000.10,18.2,24.5,10.0,06.8,0671.5,30.9
2021-08-04T13:02:00Z,00000200,20000000,,,,,,,-000.06,0000.18,-000.32,18.2,24.5,09.9,06.7,0671.5,30.9
2021-08-04T13:03:00Z,00000200,60000000,,,,,,,0000.10,-000.34,0000.26,18.2,24.5,09.9,06.7,0671.5,30.9
2021-08-04T13:04:00Z,00000200,40000000,0002.20,0001.89,0001.08,0000.57,0000.46,0000.20,0000.34,0000.64,-000.13,18.3,24.4,09.2,06.4,0672.5,30.9
2021-08-04T13:05:00Z,00000200,00000000,0002.63,0001.91,0001.34,0000.56,0000.18,0000.53,0001.08,0000.58,0000.75,18.4,24.4,09.1,06.3,0672.5,30.9
2021-08-04T13:06:00Z,00000200,00000000,0003.12,0002.16,0001.21,0000.73,0000.25,0000.10,0000.36,0000.26,0000.36,18.4,24.3,08.9,06.2,0672.5,30.9
2021-08-04T13:07:00Z,00000200,00000000,0001.81,0001.60,0001.14,0000.21,0000.27,0000.24,0000.72,0000.70,0000.30,18.4,24.3,08.9,06.2,0672.5,30.9
2021-08-04T13:08:00Z,00000200,00000000,0002.79,0001.66,0001.03,0000.66,0000.30,0000.49,0000.63,0000.63,0000.38,18.4,24.3,08.8,06.1,0672.5,30.9
2021-08-04T13:09:00Z,00000200,00000000,0002.44,0001.78,0001.25,0000.75,0000.42,0000.37,0000.74,0000.50,0000.15,18.4,24.3,08.7,06.1,0672.5,30.9
2021-08-04T13:10:00Z,00000200,00000000,0003.29,0001.99,0001.27,0000.38,0000.08,0000.45,0000.54,0000.90,0000.61,18.4,24.4,08.7,06.0,0672.5,30.9
2021-08-04T13:11:00Z,00000200,00000000,0002.85,0001.73,0001.44,0000.53,0000.32,0000.36,0000.58,0000.20,0000.73,18.4,24.4,08.6,06.0,0672.5,30.9
2021-08-04T13:12:00Z,00000200,00000000,0002.51,0001.80,0001.24,0000.44,0000.37,-000.02,0000.61,0000.53,0000.30,18.5,24.4,08.6,06.0,0672.5,30.9
2021-08-04T13:13:00Z,00000200,00000000,0002.64,0001.83,0001.18,0000.31,0000.17,0000.14,0000.84,0001.37,0000.70,18.5,24.4,08.5,06.0,0672.5,30.9
2021-08-04T13:14:00Z,00000200,00000000,0003.10,0001.87,0000.82,-000.11,0000.31,0000.28,0000.65,-000.11,0000.37,18.5,24.4,08.6,06.0,0672.5,30.9
2021-08-04T13:15:00Z,00000200,00000000,0002.69,0002.08,0001.18,0000.35,0000.31,0000.10,0001.09,0001.21,0000.74,18.5,24.4,08.5,05.9,0672.5,30.9
2021-08-04T13:16:00Z,00000200,00000000,0001.78,0001.76,0001.31,0000.50,0000.55,0000.17,0000.21,0000.24,0000.40,18.5,24.4,08.4,05.9,0672.5,30.9
2021-08-04T13:17:00Z,00000200,00000000,0002.85,0001.92,0001.43,0000.42,0000.30,0000.57,0000.89,0000.85,0000.47,18.5,24.4,08.5,05.9,0672.5,30.9
2021-08-04T13:18:00Z,00000200,00000000,0002.59,0001.75,0001.04,0000.22,0000.21,0000.64,0000.71,0000.57,0000.35,18.5,24.4,08.5,05.9,0672.5,30.9
2021-08-04T13:19:00Z,00000200,00000000,0002.66,0001.95,0001.12,0000.39,0000.00,0000.19,0000.69,0000.70,0000.18,18.5,24.4,08.4,05.9,0672.5,30.9
2021-08-04T13:20:00Z,00000200,00000000,0002.81,0002.09,0001.02,0000.34,0000.61,0000.25,0000.35,0000.33,0000.42,18.5,24.4,08.3,05.8,0672.5,30.9
2021-08-04T13:21:00Z,00000200,00000000,0002.95,0001.87,0001.09,0000.98,0000.26,0000.40,0001.08,0001.02,0000.92,18.5,24.4,08.3,05.8,0672.5,30.9
2021-08-04T13:22:00Z,00000200,00000000,0002.44,0002.17,0001.50,0000.28,0000.52,0000.11,0000.63,0000.73,0000.02,18.5,24.4,08.4,05.8,0672.5,30.9
2021-08-04T13:23:00Z,00000200,00000000,0002.55,0001.84,0001.66,0000.15,0000.33,0000.05,0000.80,0000.81,0000.85,18.6,24.4,08.3,05.8,0672.5,30.9
2021-08-04T13:24:00Z,00000200,00000000,0003.05,0002.16,0001.10,0001.15,0000.28,0000.23,0000.62,0000.45,0000.65,18.6,24.4,08.4,05.9,0672.5,30.9
2021-08-04T13:25:00Z,00000200,00000000,0002.68,0001.93,0001.06,0000.48,0000.31,0000.21,0001.04,0000.88,0000.63,18.6,24.4,08.3,05.8,0672.6,30.9
2021-08-04T13:26:00Z,00000200,00000000,0003.44,0001.94,0001.18,0001.39,0000.35,0000.19,0000.79,0000.44,0000.15,18.6,24.4,08.4,05.9,0672.6,30.9
2021-08-04T13:27:00Z,00000200,00000000,0002.82,0001.95,0001.19,0000.72,0000.31,-000.05,0000.83,0001.07,0000.62,18.6,24.4,08.3,05.8,0672.5,30.9
2021-08-04T13:28:00Z,00000200,00000000,0003.35,0002.00,0001.39,-000.16,0000.28,0000.12,0000.67,0000.45,0000.64,18.6,24.4,08.3,05.8,0672.6,30.9
2021-08-04T13:29:00Z,00000200,00000000,0003.05,0001.86,0001.38,0000.68,0000.18,0000.61,0000.44,0000.71,0000.72,18.6,24.4,08.2,05.8,0672.6,30.9
2021-08-04T13:30:00Z,00000200,00000000,0003.05,0002.30,0001.34,0000.98,0000.26,0000.43,0001.16,0000.57,0000.68,18.6,24.5,08.3,05.8,0672.6,30.9
2021-08-04T13:31:00Z,00000200,00000000,0003.66,0001.82,0001.31,-000.04,0000.18,-000.06,0000.44,0000.71,0000.09,18.6,24.4,08.3,05.8,0672.5,30.9
2021-08-04T13:32:00Z,00000200,00000000,0002.61,0001.88,0001.51,0000.43,0000.30,0000.30,0000.83,0000.86,0000.84,18.6,24.5,08.2,05.7,0672.5,30.9
2021-08-04T13:33:00Z,00000200,00000000,0003.08,0002.58,0001.56,0000.45,0000.50,0000.45,0000.79,0000.58,0000.27,18.6,24.5,08.2,05.8,0672.5,30.9
2021-08-04T13:34:00Z,00000200,00000000,0003.06,0002.16,0001.35,0000.06,0000.65,0000.28,0000.50,0000.67,0000.58,18.7,24.5,08.2,05.7,0672.5,30.9
2021-08-04T13:35:00Z,00000200,00000000,0002.87,0001.51,0001.50,0000.23,0000.04,0000.03,0000.99,0000.74,0000.63,18.7,24.5,08.1,05.7,0672.5,30.9
2021-08-04T13:36:00Z,00000200,00000000,0003.40,0002.00,0001.52,0000.94,0000.63,0000.27,0000.86,0000.67,0000.17,18.7,24.5,08.1,05.7,0672.5,30.9
2021-08-04T13:37:00Z,00000200,00000000,0002.62,0001.93,0001.07,0000.71,0000.31,0000.36,0000.85,0000.55,0000.83,18.7,24.5,08.1,05.7,0672.5,30.9
2021-08-04T13:38:00Z,00000200,00000000,0002.66,0001.79,0001.01,0000.75,0000.32,0000.38,0000.31,0000.38,0000.52,18.7,24.5,08.0,05.6,0672.5,30.9
2021-08-04T13:39:00Z,00000200,00000000,0002.61,0001.77,0001.23,0000.68,0000.18,0000.16,0000.79,0000.85,0000.05,18.7,24.5,08.0,05.6,0672.5,30.9
2021-08-04T13:40:00Z,00000200,00000000,0002.17,0001.96,0001.56,0000.64,0000.37,0000.09,0000.40,0000.46,0000.56,18.7,24.5,07.9,05.6,0672.5,30.9
2021-08-04T13:41:00Z,00000200,00000000,0002.38,0001.71,0001.14,0000.56,0000.30,0000.20,0000.70,0000.71,0000.32,18.7,24.5,07.9,05.6,0672.5,30.9
2021-08-04T13:42:00Z,00000200,00000000,0002.73,0002.23,0001.17,0000.45,0000.14,0000.30,0000.83,0000.75,0000.47,18.7,24.5,08.0,05.6,0672.5,30.9
2021-08-04T13:43:00Z,00000200,00000000,0003.23,0002.20,0001.45,0000.80,-000.07,0000.49,0000.91,0000.47,0000.76,18.7,24.5,07.9,05.5,0672.5,30.9
2021-08-04T13:44:00Z,00000200,00000000,0002.56,0001.99,0001.21,0000.62,0000.26,-000.13,0000.92,0000.93,0000.53,18.7,24.5,07.9,05.5,0672.5,30.9
2021-08-04T13:45:00Z,00000200,00000000,0001.63,0002.24,0001.27,0000.57,0000.37,0000.12,0000.25,0000.29,0000.46,18.7,24.6,07.9,05.5,0672.5,30.9
2021-08-04T13:46:00Z,00000200,00000000,0003.45,0002.11,0001.07,0000.36,0000.23,0000.17,0001.00,0000.84,0000.15,18.8,24.5,07.8,05.5,0672.5,30.9
2021-08-04T13:47:00Z,00000200,00000000,0002.41,0001.64,0001.35,0000.53,0000.07,0000.28,0000.31,0000.57,0000.85,18.8,24.5,07.8,05.5,0672.5,30.9
2021-08-04T13:48:00Z,00000200,00000000,0003.41,0001.89,0001.22,0000.42,0000.33,0000.48,0001.07,0001.00,0000.37,18.8,24.6,07.7,05.4,0672.5,30.9
2021-08-04T13:49:00Z,00000200,00000000,0002.37,0001.72,0001.26,0000.28,0000.32,0000.67,0000.92,0000.72,0000.65,18.8,24.6,07.7,05.4,0672.5,30.9
2021-08-04T13:50:00Z,00000200,00000000,0002.50,0002.06,0001.67,0000.18,0000.64,-000.03,0000.64,0000.20,0000.42,18.8,24.6,07.7,05.4,0672.5,30.9
2021-08-04T13:51:00Z,00000200,00000000,0003.04,0001.97,0001.34,0000.35,0000.16,0000.36,0000.66,0000.51,0000.49,18.8,24.6,07.7,05.4,0672.5,30.9
2021-08-04T13:52:00Z,00000200,00000000,0002.96,0002.22,0001.33,0000.88,0000.55,0000.40,0000.74,0000.91,0000.35,18.8,24.6,07.7,05.4,0672.5,30.9
2021-08-04T13:53:00Z,00000200,00000000,0002.68,0001.89,0001.35,0000.18,0000.04,0000.69,0000.61,0000.33,0000.65,18.8,24.6,07.6,05.3,0672.5,30.9
2021-08-04T13:54:00Z,00000200,00000000,0002.56,0001.84,0001.19,-000.03,0000.32,0000.24,0000.58,0000.46,0000.42,18.9,24.6,07.6,05.3,0672.5,30.9
2021-08-04T13:55:00Z,00000200,00000000,0002.63,0002.00,0001.44,0000.95,0000.15,0000.21,0001.04,0001.43,0000.45,18.9,24.6,07.6,05.3,0672.5,31.0
2021-08-04T13:56:00Z,00000200,00000000,0002.33,0001.96,0001.24,0000.23,0000.26,0000.13,0000.68,0000.31,0000.56,18.9,24.6,07.6,05.4,0672.5,30.9
2021-08-04T13:57:00Z,00000200,40000000,,,,,,,0000.71,0001.14,0000.77,18.9,24.6,08.1,05.7,0672.5,30.9
2021-08-04T13:58:00Z,00000200,60000000,,,,,,,-000.51,-000.43,-000.37,18.8,24.7,07.8,05.4,0671.5,30.9
2021-08-04T13:59:00Z,00000200,20000000,,,,,,,-000.20,-000.22,-000.13,18.8,24.8,07.8,05.4,0671.5,30.9
